Location: Little Smith Valley
(38.5430°N, 119.2952°W)
Time: 14:54:50
(UTC+00:00)

Daily predictions for brighter satellites

Satellite Brightness Start Highest point End
(mag) Time Altitude Azimuth Time Altitude Azimuth Time Altitude Azimuth
Cosmos 1844 Rocket 3.9 12:13:00 37° ESE 12:13:00 37° ESE 12:16:32 10° SE
Cosmos 2333 Rocket 2.8 12:24:13 54° ENE 12:24:13 54° ENE 12:28:57 10° NNE
Cosmos 2219 Rocket 2.5 12:31:48 62° ESE 12:31:54 62° ESE 12:37:25 10° NNE
Cosmos 44 4.3 12:36:21 44° SSE 12:36:21 44° SSE 12:39:59 10° SSE
SJ 16-02 2.6 12:36:30 38° E 12:36:30 38° E 12:39:58 10° SE
Meteor 2-5 Rocket 3.9 12:38:53 66° SSE 12:38:53 66° SSE 12:43:45 10° S
Meteor 1-22 Rocket 4.3 12:43:11 69° N 12:43:11 69° N 12:48:20 10° N
COSMOS 2428 3.0 12:40:27 34° S 12:42:54 65° ESE 12:48:32 10° NNE
ATLAS 5 CENTAUR R/B 4.4 12:44:30 11° NE 12:44:33 11° ENE 12:45:42 10° E
OAO 2 Rocket 3.9 12:53:34 45° S 12:53:40 45° SSE 12:58:20 10° E
Cosmos 1758 4.0 12:53:14 10° S 12:57:08 52° E 13:01:05 10° NNE
ERS-2 3.7 12:54:36 10° SE 12:57:55 33° ENE 12:58:56 28° NE
Cosmos 2360 Rocket 4.1 13:03:58 16° N 13:03:58 16° N 13:05:17 10° N
GEOS 3 Rocket 4.2 12:56:40 10° SE 13:01:52 54° NE 13:04:31 28° NNW
CZ-4B R/B 3.6 12:58:42 10° NNE 13:02:11 46° E 13:05:44 10° S
Cosmos 1726 4.0 13:05:12 10° S 13:11:10 22° NNE 13:12:34 10° NNE
Cosmos 468 Rocket 3.9 13:06:33 10° SSW 13:11:47 90° E 13:17:05 10° NNE
Cosmos 1455 Rocket 3.3 13:09:30 10° S 13:13:50 69° E 13:18:09 10° NNE
SKYMED 2 3.5 13:11:16 10° SSE 13:15:36 86° ENE 13:17:36 32° N
Meteor 1-24 Rocket 3.6 13:15:26 43° NW 13:16:52 57° W 13:22:22 10° S
Lacrosse 5 rocket 3.8 13:21:30 10° N 13:22:33 11° NNE 13:23:36 10° NE
IRIDIUM 104 4.3 13:19:28 10° SSW 13:24:37 60° W 13:29:47 10° N
CZ-2C R/B 3.4 13:24:08 13° SSW 13:26:36 20° SSE 13:29:34 10° ESE
Envisat 3.8 13:22:03 10° NNE 13:27:01 51° E 13:31:56 10° S
Cosmos 1844 4.1 13:28:03 37° W 13:28:58 40° WSW 13:34:18 10° S
BREEZE-M (TANK) 4.0 13:31:08 14° NNE 13:31:08 14° NNE 13:31:50 10° NE
IRIDIUM 114 4.5 13:28:45 10° SSW 13:33:46 48° W 13:38:50 10° N
deb Chang Zheng 4 3.6 13:31:11 10° N 13:35:19 52° WNW 13:39:25 10° SSW
Atlas Centaur 2 4.1 13:28:32 12° SW 13:35:32 40° SSE 13:43:17 10° E
Cosmos 2034 Rocket 4.2 13:30:25 10° S 13:36:46 78° E 13:43:09 10° N
Meteor 2-10 4.2 13:32:05 10° SSW 13:37:39 57° WNW 13:43:07 10° N
BREEZE-M DEB (TANK) 2.3 13:37:38 35° SW 13:38:44 79° SE 13:45:00 10° NE
ADEOS 4.2 13:34:21 10° N 13:38:55 31° WNW 13:39:07 31° WNW
H-2A R/B 2.5 13:36:58 10° N 13:40:40 73° WNW 13:44:22 10° SSW
H-2A R/B 4.5 13:36:59 10° NNE 13:41:03 34° E 13:45:08 10° SSE
SL-4 R/B 4.5 13:42:04 10° S 13:44:56 21° SE 13:47:59 10° ENE
SJ-7 4.4 13:41:28 10° NNE 13:45:38 86° E 13:49:44 10° SSW
ATLAS CENTAUR R/B 4.2 13:46:11 10° SSE 13:48:49 18° ESE 13:51:25 10° ENE
SAR-Lupe-4 3.5 13:46:30 10° S 13:50:03 66° WSW 13:53:05 14° NNW
CZ-4B R/B 3.4 13:49:06 10° SSW 13:50:04 15° SW 13:50:04 15° SW
PSLV R/B 3.9 13:48:08 10° NNE 13:52:06 81° E 13:56:07 10° S
Nadezhda 4 Rocket 4.0 13:46:11 10° N 13:52:21 85° E 13:58:27 10° S
Cosmos 1892 Rocket 3.9 13:50:00 16° NNW 13:53:09 41° W 13:57:15 10° SSW
SL-16 R/B 4.2 13:49:32 10° SSE 13:54:26 31° ESE 13:59:20 10° NE
Cosmos 1844 Rocket 4.0 13:54:43 18° WSW 13:54:43 18° WSW 13:58:08 10° SW
Cosmos 540 Rocket 3.4 13:55:13 10° SSW 14:00:17 68° WNW 14:05:25 10° NNE
Cosmos 2278 Rocket 2.3 13:54:47 10° NNW 14:00:29 80° ENE 14:06:09 10° SSE
SAR-Lupe-1 4.3 13:57:44 10° S 14:01:11 47° W 14:04:27 11° NNW
Cosmos 990 Rocket 4.2 13:56:59 11° NNW 14:01:38 48° WSW 14:06:33 10° S
USA 276 2.8 14:00:48 27° W 14:01:53 38° SW 14:04:48 10° SSE
PSLV R/B 4.1 13:58:41 10° S 14:02:38 49° W 14:06:39 10° NNW
COSMO-SKYMED 1 3.5 14:00:10 10° SSW 14:03:49 26° W 14:06:14 17° NW
Cosmos 1461 3.6 14:00:07 10° WSW 14:04:30 39° NW 14:09:00 10° NNE
Cosmos 1953 2.4 14:00:46 10° SSW 14:04:38 48° W 14:08:30 10° N
BREEZE-M DEB (TANK) 3.1 14:00:00 14° NW 14:07:12 65° NNE 14:10:14 10° ESE
Cosmos 2333 Rocket 3.4 14:06:19 17° WNW 14:08:04 20° NW 14:12:10 10° N
Cosmos 2237 Rocket 2.1 14:02:28 10° SSW 14:08:05 67° WNW 14:13:46 10° NNE
Cosmos 921 Rocket 4.0 14:06:34 10° WSW 14:10:05 24° WNW 14:13:35 10° N
MOS 1 Rocket 4.0 14:08:03 10° SSW 14:12:47 36° W 14:17:18 10° NNW
MOS 1-B 4.4 14:07:26 10° NNE 14:13:14 86° ESE 14:19:00 10° SSW
SJ 16-02 2.9 14:13:33 15° W 14:14:01 15° W 14:16:34 10° SW
Cosmos 858 Rocket 4.5 14:09:44 10° NNW 14:14:56 64° WSW 14:20:04 10° S
CZ-2C R/B 3.0 14:10:04 10° SSE 14:15:12 68° ENE 14:20:27 10° N
Cosmos 2219 Rocket 3.5 14:13:39 14° W 14:16:17 19° NW 14:20:12 10° N
GPS 2-04 Rocket1 4.0 14:15:02 13° WSW 14:18:15 31° SSW 14:21:56 10° SE
Cosmos 1689 Rocket 3.3 14:18:51 10° SSW 14:21:11 22° W 14:23:02 13° NW
YAOGAN 6 3.3 14:18:38 10° N 14:21:58 32° WNW 14:25:17 10° SW
Cosmos 44 Rocket 3.5 14:18:21 10° NNW 14:23:37 89° SW 14:28:48 10° SSE
Cosmos 1315 Rocket 4.4 14:20:50 10° SSE 14:24:29 38° E 14:28:07 10° NNE
Cosmos 1544 Rocket 4.4 14:20:52 10° SW 14:24:36 28° WNW 14:28:21 10° NNW
Cosmos 1908 3.5 14:21:20 10° SSW 14:24:55 41° W 14:28:33 10° N
Cosmos 1898 Rocket 4.2 14:21:39 10° NW 14:26:15 33° W 14:30:51 10° SSW
Cosmos 841 Rocket 3.8 14:22:23 10° SW 14:27:12 40° WNW 14:32:04 10° N
USA 306 4.3 14:23:14 10° SSW 14:27:14 43° SE 14:31:16 10° ENE
COSMOS 2428 4.0 14:23:43 10° W 14:27:39 19° NW 14:31:36 10° N
Cosmos 2026 Rocket 4.3 14:23:27 10° N 14:29:48 78° E 14:36:11 10° S
ERS-2 4.0 14:29:41 10° SW 14:31:32 13° W 14:33:24 10° WNW
NOSS 3-2 (A) 3.6 14:26:34 10° SSW 14:32:01 71° ESE 14:38:11 10° NE
Cosmos 1570 Rocket 4.3 14:27:11 10° SW 14:32:10 45° WNW 14:37:11 10° N
NOAA 12 4.1 14:27:29 10° N 14:32:46 76° WNW 14:38:02 10° SSW
Cosmos 2098 Rocket 4.3 14:27:11 10° N 14:33:28 63° E 14:38:27 10° SSE
Cosmos 1606 Rocket 4.2 14:33:36 10° S 14:37:50 60° E 14:42:05 10° NNE
OAO 2 Rocket 3.7 14:33:19 10° W 14:38:08 57° S 14:42:59 10° ESE
Cosmos 1980 4.3 14:35:36 10° SW 14:40:42 34° WNW 14:45:49 10° N
CORIOLIS 4.1 14:36:33 10° N 14:41:55 79° WNW 14:47:15 10° SSW
NOAA 11 4.2 14:37:44 10° N 14:43:13 82° WNW 14:48:39 10° SSW
Lacrosse 4 Rocket 1.4 14:39:21 10° SSW 14:43:31 78° WNW 14:47:49 10° NNE
FALCON 9 DEB 4.1 14:40:50 10° W 14:43:50 28° NNW 14:46:49 10° NNE
